Time,TemperatureF,DewpointF,PressureIn,WindDirection,WindDirectionDegrees,WindSpeedMPH,WindSpeedGustMPH,Humidity,HourlyPrecipIn,Conditions,Clouds,dailyrainin,SoftwareType,DateUTC
2013-04-02 00:09:00,72.9,62.1,25.28,North,0,3.6,3.6,62,0.00,,,-99.99,Homeseer,2013-04-02 04:09:00,
2013-04-02 00:19:00,72.7,62.3,25.28,North,0,2.7,2.7,63,0.00,,,-99.99,Homeseer,2013-04-02 04:19:00,
2013-04-02 00:29:00,72.5,62.1,25.28,NW,315,2.7,2.9,63,0.00,,,-99.99,Homeseer,2013-04-02 04:29:00,
2013-04-02 00:39:00,72.3,62.3,25.28,WNW,297,3.4,3.4,64,0.00,,,-99.99,Homeseer,2013-04-02 04:39:00,
2013-04-02 00:49:00,72.0,62.3,25.28,North,0,3.1,4.3,65,0.00,,,-99.99,Homeseer,2013-04-02 04:49:00,
2013-04-02 00:59:00,71.8,62.8,25.28,North,0,5.8,6.3,67,0.00,,,-99.99,Homeseer,2013-04-02 04:59:00,
2013-04-02 01:09:00,71.6,62.9,25.28,North,0,3.6,5.6,68,0.00,,,-99.99,Homeseer,2013-04-02 05:09:00,
2013-04-02 01:19:00,71.4,63.1,25.28,North,0,4.3,4.3,69,0.00,,,-99.99,Homeseer,2013-04-02 05:19:00,
2013-04-02 01:29:00,71.1,64.3,25.28,North,0,4.0,4.3,74,0.00,,,-99.99,Homeseer,2013-04-02 05:29:00,
2013-04-02 01:39:00,71.1,64.0,25.28,North,0,3.4,3.4,73,0.00,,,-99.99,Homeseer,2013-04-02 05:39:00,
2013-04-02 01:49:00,70.9,65.0,25.28,North,0,4.0,4.0,77,0.00,,,-99.99,Homeseer,2013-04-02 05:49:00,
2013-04-02 01:59:00,70.7,65.4,25.28,North,0,4.5,4.5,79,0.00,,,-99.99,Homeseer,2013-04-02 05:59:00,
2013-04-02 02:09:00,70.5,65.5,25.28,North,0,3.1,3.1,80,0.00,,,-99.99,Homeseer,2013-04-02 06:09:00,
2013-04-02 02:19:00,70.3,65.3,25.28,NW,315,2.2,2.9,80,0.00,,,-99.99,Homeseer,2013-04-02 06:19:00,
2013-04-02 02:29:00,70.3,65.3,25.28,NW,315,3.4,3.4,80,0.00,,,-99.99,Homeseer,2013-04-02 06:29:00,
2013-04-02 02:39:00,70.2,65.4,25.28,WNW,297,2.2,3.1,81,0.00,,,-99.99,Homeseer,2013-04-02 06:39:00,
2013-04-02 02:49:00,70.0,65.3,25.28,North,0,2.0,0.0,81,0.00,,,-99.99,Homeseer,2013-04-02 06:49:00,
2013-04-02 02:59:00,70.0,65.5,25.28,North,0,2.5,3.6,82,0.00,,,-99.99,Homeseer,2013-04-02 06:59:00,
2013-04-02 03:09:00,69.8,65.6,25.28,NW,315,1.6,2.5,83,0.00,,,-99.99,Homeseer,2013-04-02 07:09:00,
2013-04-02 03:19:00,69.8,66.9,25.28,NW,315,2.2,2.9,88,0.00,,,-99.99,Homeseer,2013-04-02 07:19:00,
2013-04-02 03:28:00,69.6,66.7,25.28,North,0,4.0,4.0,88,0.00,,,-99.99,Homeseer,2013-04-02 07:28:00,
2013-04-02 03:38:00,69.4,66.3,25.28,North,0,1.1,2.9,87,0.00,,,-99.99,Homeseer,2013-04-02 07:38:00,
2013-04-02 03:48:00,69.4,66.3,25.28,WNW,297,0.0,0.0,87,0.00,,,-99.99,Homeseer,2013-04-02 07:48:00,
2013-04-02 03:58:00,69.3,66.4,25.28,WNW,297,0.9,0.0,88,0.00,,,-99.99,Homeseer,2013-04-02 07:58:00,
2013-04-02 04:08:00,69.1,66.5,25.28,North,0,0.0,0.0,89,0.00,,,-99.99,Homeseer,2013-04-02 08:08:00,
2013-04-02 04:18:00,68.9,66.5,25.28,NW,315,0.9,1.1,90,0.00,,,-99.99,Homeseer,2013-04-02 08:18:00,
2013-04-02 04:28:00,68.7,66.3,25.28,WNW,297,1.6,1.6,90,0.00,,,-99.99,Homeseer,2013-04-02 08:28:00,
2013-04-02 04:38:00,68.7,66.3,25.28,North,0,0.9,1.3,90,0.00,,,-99.99,Homeseer,2013-04-02 08:38:00,
2013-04-02 04:48:00,68.7,66.3,25.28,WNW,297,0.9,1.1,90,0.00,,,-99.99,Homeseer,2013-04-02 08:48:00,
2013-04-02 04:58:00,68.5,66.1,25.28,WNW,297,0.0,1.1,90,0.00,,,-99.99,Homeseer,2013-04-02 08:58:00,
2013-04-02 05:08:00,68.5,66.4,25.28,NW,315,0.0,0.9,91,0.00,,,-99.99,Homeseer,2013-04-02 09:08:00,
2013-04-02 05:18:00,68.5,66.4,25.28,North,0,0.0,2.5,91,0.00,,,-99.99,Homeseer,2013-04-02 09:18:00,
2013-04-02 05:28:00,68.5,66.6,25.28,North,0,2.0,2.0,92,0.00,,,-99.99,Homeseer,2013-04-02 09:28:00,
2013-04-02 05:38:00,68.4,66.5,25.28,NW,315,1.3,1.3,92,0.00,,,-99.99,Homeseer,2013-04-02 09:38:00,
2013-04-02 05:48:00,68.4,66.5,25.28,WNW,297,0.0,0.0,92,0.00,,,-99.99,Homeseer,2013-04-02 09:48:00,
2013-04-02 05:58:00,68.2,66.6,25.28,WNW,297,2.0,2.2,93,0.00,,,-99.99,Homeseer,2013-04-02 09:58:00,
2013-04-02 06:08:00,68.2,66.6,25.28,North,0,1.3,1.3,93,0.00,,,-99.99,Homeseer,2013-04-02 10:08:00,
2013-04-02 06:18:00,68.2,66.8,25.28,North,0,2.9,2.9,94,0.00,,,-99.99,Homeseer,2013-04-02 10:18:00,
2013-04-02 06:28:00,68.0,67.5,25.28,North,0,4.7,4.7,98,0.00,,,-99.99,Homeseer,2013-04-02 10:28:00,
2013-04-02 06:38:00,67.8,67.3,25.28,North,0,4.0,4.0,98,0.00,,,-99.99,Homeseer,2013-04-02 10:38:00,
2013-04-02 06:48:00,67.6,67.1,25.28,North,0,4.3,4.3,98,0.00,,,-99.99,Homeseer,2013-04-02 10:48:00,
2013-04-02 06:58:00,67.5,67.0,25.28,North,0,4.3,6.5,98,0.00,,,-99.99,Homeseer,2013-04-02 10:58:00,
2013-04-02 07:08:00,67.5,67.0,25.28,North,0,4.9,5.4,98,0.00,,,-99.99,Homeseer,2013-04-02 11:08:00,
2013-04-02 07:18:00,67.3,66.8,25.28,North,0,3.4,3.6,98,0.00,,,-99.99,Homeseer,2013-04-02 11:18:00,
2013-04-02 07:28:00,67.5,67.0,25.28,North,0,3.6,3.6,98,0.00,,,-99.99,Homeseer,2013-04-02 11:28:00,
2013-04-02 07:38:00,67.5,67.0,25.28,North,0,2.5,2.9,98,0.00,,,-99.99,Homeseer,2013-04-02 11:38:00,
2013-04-02 07:48:00,67.6,67.1,25.28,WNW,297,2.9,3.8,98,0.00,,,-99.99,Homeseer,2013-04-02 11:48:00,
2013-04-02 07:58:00,67.8,67.3,25.28,North,0,3.4,3.4,98,0.00,,,-99.99,Homeseer,2013-04-02 11:58:00,
2013-04-02 08:08:00,67.8,67.3,25.28,North,0,2.5,2.5,98,0.00,,,-99.99,Homeseer,2013-04-02 12:08:00,
2013-04-02 08:18:00,68.0,67.5,25.28,North,0,2.7,3.8,98,0.00,,,-99.99,Homeseer,2013-04-02 12:18:00,
2013-04-02 08:28:00,68.5,68.0,25.28,NNE,22,2.2,3.4,98,0.00,,,-99.99,Homeseer,2013-04-02 12:28:00,
2013-04-02 08:38:00,68.7,68.0,25.28,ENE,67,2.2,2.2,97,0.00,,,-99.99,Homeseer,2013-04-02 12:38:00,
2013-04-02 08:48:00,69.1,67.9,25.28,North,0,1.6,1.6,95,0.00,,,-99.99,Homeseer,2013-04-02 12:48:00,
2013-04-02 08:58:00,69.6,68.0,25.28,North,0,4.7,5.8,93,0.00,,,-99.99,Homeseer,2013-04-02 12:58:00,
2013-04-02 09:08:00,70.7,68.3,25.28,North,0,6.3,6.3,90,0.00,,,-99.99,Homeseer,2013-04-02 13:08:00,
2013-04-02 09:18:00,71.2,67.2,25.28,North,0,6.3,6.3,84,0.00,,,-99.99,Homeseer,2013-04-02 13:18:00,
2013-04-02 09:28:00,72.0,67.2,25.28,North,0,5.6,5.8,81,0.00,,,-99.99,Homeseer,2013-04-02 13:28:00,
2013-04-02 09:38:00,72.3,67.2,25.28,North,0,6.3,8.7,80,0.00,,,-99.99,Homeseer,2013-04-02 13:38:00,
2013-04-02 09:48:00,72.9,66.0,25.28,North,0,6.3,9.0,74,0.00,,,-99.99,Homeseer,2013-04-02 13:48:00,
2013-04-02 09:58:00,73.4,65.3,25.28,North,0,7.6,7.6,70,0.00,,,-99.99,Homeseer,2013-04-02 13:58:00,
2013-04-02 10:08:00,74.1,65.6,25.28,North,0,3.6,6.5,69,0.00,,,-99.99,Homeseer,2013-04-02 14:08:00,
2013-04-02 10:18:00,74.7,65.9,25.28,North,0,5.4,5.4,68,0.00,,,-99.99,Homeseer,2013-04-02 14:18:00,
2013-04-02 10:28:00,74.8,65.3,25.28,NNE,22,4.0,4.0,66,0.00,,,-99.99,Homeseer,2013-04-02 14:28:00,
2013-04-02 10:38:00,75.4,64.8,25.28,North,0,3.4,3.4,63,0.00,,,-99.99,Homeseer,2013-04-02 14:38:00,
2013-04-02 10:48:00,75.9,64.2,25.28,North,0,2.9,3.1,60,0.00,,,-99.99,Homeseer,2013-04-02 14:48:00,
2013-04-02 10:58:00,76.3,63.1,25.28,North,0,3.4,3.6,56,0.00,,,-99.99,Homeseer,2013-04-02 14:58:00,
2013-04-02 11:08:00,76.5,61.6,25.28,North,0,2.5,3.4,52,0.00,,,-99.99,Homeseer,2013-04-02 15:08:00,
2013-04-02 11:18:00,77.4,61.6,25.28,ESE,112,1.3,4.0,50,0.00,,,-99.99,Homeseer,2013-04-02 15:18:00,
2013-04-02 11:28:00,77.7,63.1,25.28,ESE,112,3.6,3.6,53,0.00,,,-99.99,Homeseer,2013-04-02 15:28:00,
2013-04-02 11:38:00,77.2,63.1,25.28,ESE,112,5.4,5.6,54,0.00,,,-99.99,Homeseer,2013-04-02 15:38:00,
2013-04-02 11:48:00,76.8,63.1,25.28,East,90,4.7,4.7,55,0.00,,,-99.99,Homeseer,2013-04-02 15:48:00,
2013-04-02 11:58:00,76.8,63.5,25.28,SE,135,5.6,5.6,56,0.00,,,-99.99,Homeseer,2013-04-02 15:58:00,
2013-04-02 12:08:00,77.2,63.9,25.28,WSW,247,4.7,4.9,56,0.00,,,-99.99,Homeseer,2013-04-02 16:08:00,
2013-04-02 12:18:00,78.3,63.3,25.28,SSE,157,5.4,5.4,52,0.00,,,-99.99,Homeseer,2013-04-02 16:18:00,
2013-04-02 12:28:00,78.6,63.1,25.28,South,180,3.1,4.0,51,0.00,,,-99.99,Homeseer,2013-04-02 16:28:00,
2013-04-02 12:38:00,78.3,62.4,25.28,SSE,157,4.9,4.9,50,0.00,,,-99.99,Homeseer,2013-04-02 16:38:00,
2013-04-02 12:48:00,78.6,62.7,25.28,East,90,5.8,6.5,50,0.00,,,-99.99,Homeseer,2013-04-02 16:48:00,
2013-04-02 12:58:00,78.3,62.4,25.28,SE,135,7.2,7.2,50,0.00,,,-99.99,Homeseer,2013-04-02 16:58:00,
2013-04-02 13:08:00,78.6,63.1,25.28,SSE,157,6.5,6.5,51,0.00,,,-99.99,Homeseer,2013-04-02 17:08:00,
2013-04-02 13:18:00,78.4,63.4,25.28,SE,135,6.7,6.7,52,0.00,,,-99.99,Homeseer,2013-04-02 17:18:00,
2013-04-02 13:28:00,78.8,63.3,25.28,ESE,112,6.5,6.5,51,0.00,,,-99.99,Homeseer,2013-04-02 17:28:00,
2013-04-02 13:38:00,78.8,63.3,25.28,SE,135,5.8,6.0,51,0.00,,,-99.99,Homeseer,2013-04-02 17:38:00,
2013-04-02 13:58:00,79.2,62.8,25.28,ESE,112,5.6,5.8,49,0.00,,,-99.99,Homeseer,2013-04-02 17:58:00,
2013-04-02 14:08:00,79.2,62.3,25.28,ESE,112,6.9,7.4,48,0.00,,,-99.99,Homeseer,2013-04-02 18:08:00,
2013-04-02 14:18:00,79.3,62.0,25.28,ESE,112,5.8,7.2,47,0.00,,,-99.99,Homeseer,2013-04-02 18:18:00,
2013-04-02 14:28:00,79.5,60.7,25.28,SE,135,5.4,5.6,44,0.00,,,-99.99,Homeseer,2013-04-02 18:28:00,
2013-04-02 14:38:00,79.9,60.6,25.28,SE,135,7.6,7.6,43,0.00,,,-99.99,Homeseer,2013-04-02 18:38:00,
2013-04-02 14:48:00,79.7,60.9,25.28,ESE,112,6.9,6.9,44,0.00,,,-99.99,Homeseer,2013-04-02 18:48:00,
2013-04-02 14:58:00,79.9,61.1,25.28,ESE,112,6.3,6.3,44,0.00,,,-99.99,Homeseer,2013-04-02 18:58:00,
2013-04-02 15:08:00,79.7,60.9,25.28,ESE,112,6.9,8.1,44,0.00,,,-99.99,Homeseer,2013-04-02 19:08:00,
2013-04-02 15:18:00,79.0,60.8,25.28,SE,135,5.4,5.8,45,0.00,,,-99.99,Homeseer,2013-04-02 19:18:00,
2013-04-02 15:28:00,79.3,61.0,25.28,ESE,112,6.0,8.7,45,0.00,,,-99.99,Homeseer,2013-04-02 19:28:00,
2013-04-02 15:38:00,79.5,61.7,25.28,SSE,157,4.9,7.6,46,0.00,,,-99.99,Homeseer,2013-04-02 19:38:00,
2013-04-02 15:48:00,80.1,62.2,25.28,ESE,112,4.5,4.5,46,0.00,,,-99.99,Homeseer,2013-04-02 19:48:00,
2013-04-02 15:58:00,78.8,61.1,25.28,ESE,112,7.2,7.2,46,0.00,,,-99.99,Homeseer,2013-04-02 19:58:00,
2013-04-02 16:08:00,79.0,62.2,25.28,ESE,112,6.9,6.9,48,0.00,,,-99.99,Homeseer,2013-04-02 20:08:00,
2013-04-02 16:18:00,79.0,62.2,25.28,SSE,157,4.5,6.0,48,0.00,,,-99.99,Homeseer,2013-04-02 20:18:00,
2013-04-02 16:28:00,79.3,61.5,25.28,SE,135,5.8,5.8,46,0.00,,,-99.99,Homeseer,2013-04-02 20:28:00,
2013-04-02 16:38:00,79.2,61.9,25.28,SE,135,5.4,5.4,47,0.00,,,-99.99,Homeseer,2013-04-02 20:38:00,
2013-04-02 16:48:00,79.2,62.3,25.28,SSE,157,3.8,4.9,48,0.00,,,-99.99,Homeseer,2013-04-02 20:48:00,
2013-04-02 16:58:00,79.3,61.0,25.28,SSE,157,4.0,5.8,45,0.00,,,-99.99,Homeseer,2013-04-02 20:58:00,
2013-04-02 17:18:00,79.0,61.2,25.28,ESE,112,4.7,6.0,46,0.00,,,-99.99,Homeseer,2013-04-02 21:18:00,
2013-04-02 17:28:00,78.6,60.4,25.28,East,90,5.6,6.0,45,0.00,,,-99.99,Homeseer,2013-04-02 21:28:00,
2013-04-02 17:38:00,78.3,60.1,25.28,ESE,112,4.9,8.1,45,0.00,,,-99.99,Homeseer,2013-04-02 21:38:00,
2013-04-02 17:48:00,78.1,60.9,25.28,SSE,157,4.9,4.9,47,0.00,,,-99.99,Homeseer,2013-04-02 21:48:00,
2013-04-02 17:58:00,77.7,61.4,25.28,ESE,112,5.6,8.5,49,0.00,,,-99.99,Homeseer,2013-04-02 21:58:00,
2013-04-02 18:08:00,77.5,61.7,25.28,East,90,5.8,5.8,50,0.00,,,-99.99,Homeseer,2013-04-02 22:08:00,
2013-04-02 18:18:00,77.4,62.9,25.28,SE,135,5.4,5.8,53,0.00,,,-99.99,Homeseer,2013-04-02 22:18:00,
2013-04-02 18:28:00,77.0,62.5,25.28,ESE,112,5.4,5.4,53,0.00,,,-99.99,Homeseer,2013-04-02 22:28:00,
2013-04-02 18:48:00,76.6,62.9,25.28,East,90,4.5,4.9,55,0.00,,,-99.99,Homeseer,2013-04-02 22:48:00,
2013-04-02 18:58:00,76.3,63.1,25.28,SE,135,3.1,4.3,56,0.00,,,-99.99,Homeseer,2013-04-02 22:58:00,
2013-04-02 19:08:00,76.1,63.6,25.28,East,90,3.8,4.9,58,0.00,,,-99.99,Homeseer,2013-04-02 23:08:00,
2013-04-02 19:18:00,75.7,62.9,25.28,SE,135,4.0,7.2,57,0.00,,,-99.99,Homeseer,2013-04-02 23:18:00,
2013-04-02 19:28:00,75.6,63.6,25.28,SE,135,4.3,4.9,59,0.00,,,-99.99,Homeseer,2013-04-02 23:28:00,
2013-04-02 19:38:00,75.4,64.5,25.28,East,90,4.0,4.0,62,0.00,,,-99.99,Homeseer,2013-04-02 23:38:00,
2013-04-02 19:48:00,75.4,64.1,25.28,ESE,112,5.8,5.8,61,0.00,,,-99.99,Homeseer,2013-04-02 23:48:00,
2013-04-02 19:58:00,75.2,65.0,25.28,East,90,5.4,6.0,64,0.00,,,-99.99,Homeseer,2013-04-02 23:58:00,
2013-04-02 20:08:00,75.0,65.1,25.28,ESE,112,3.8,3.8,65,0.00,,,-99.99,Homeseer,2013-04-03 00:08:00,
2013-04-02 20:18:00,75.0,65.1,25.28,ESE,112,4.3,4.3,65,0.00,,,-99.99,Homeseer,2013-04-03 00:18:00,
2013-04-02 20:28:00,75.0,65.1,25.28,East,90,4.0,4.0,65,0.00,,,-99.99,Homeseer,2013-04-03 00:28:00,
2013-04-02 20:38:00,74.8,65.0,25.28,East,90,4.9,5.4,65,0.00,,,-99.99,Homeseer,2013-04-03 00:38:00,
2013-04-02 20:48:00,74.8,65.0,25.28,ESE,112,3.4,3.8,65,0.00,,,-99.99,Homeseer,2013-04-03 00:48:00,
2013-04-02 20:58:00,74.8,65.3,25.28,ESE,112,3.1,3.4,66,0.00,,,-99.99,Homeseer,2013-04-03 00:58:00,
2013-04-02 21:08:00,74.8,65.3,25.28,North,0,4.0,4.0,66,0.00,,,-99.99,Homeseer,2013-04-03 01:08:00,
2013-04-02 21:18:00,74.8,65.6,25.28,ESE,112,3.6,5.6,67,0.00,,,-99.99,Homeseer,2013-04-03 01:18:00,
2013-04-02 21:28:00,74.8,65.0,25.28,ESE,112,3.8,5.4,65,0.00,,,-99.99,Homeseer,2013-04-03 01:28:00,
2013-04-02 21:38:00,74.8,65.6,25.28,SE,135,2.9,3.8,67,0.00,,,-99.99,Homeseer,2013-04-03 01:38:00,
2013-04-02 21:48:00,74.8,66.0,25.28,East,90,3.6,3.8,68,0.00,,,-99.99,Homeseer,2013-04-03 01:48:00,
2013-04-02 21:58:00,74.7,65.9,25.28,ESE,112,4.3,4.3,68,0.00,,,-99.99,Homeseer,2013-04-03 01:58:00,
2013-04-02 22:08:00,74.7,65.9,25.28,ESE,112,4.9,4.9,68,0.00,,,-99.99,Homeseer,2013-04-03 02:08:00,
2013-04-02 22:18:00,74.5,66.0,25.28,ESE,112,3.4,3.8,69,0.00,,,-99.99,Homeseer,2013-04-03 02:18:00,
2013-04-02 22:28:00,74.5,66.0,25.28,ESE,112,4.3,6.3,69,0.00,,,-99.99,Homeseer,2013-04-03 02:28:00,
2013-04-02 22:38:00,74.7,66.8,25.28,SSE,157,3.8,3.8,71,0.00,,,-99.99,Homeseer,2013-04-03 02:38:00,
2013-04-02 22:48:00,74.5,66.9,25.28,SE,135,4.0,4.0,72,0.00,,,-99.99,Homeseer,2013-04-03 02:48:00,
2013-04-02 22:58:00,74.5,66.6,25.28,SSE,157,4.9,4.9,71,0.00,,,-99.99,Homeseer,2013-04-03 02:58:00,
2013-04-02 23:08:00,74.3,68.0,25.28,ESE,112,4.9,4.9,76,0.00,,,-99.99,Homeseer,2013-04-03 03:08:00,
2013-04-02 23:18:00,74.3,67.7,25.28,ESE,112,4.3,4.3,75,0.00,,,-99.99,Homeseer,2013-04-03 03:18:00,
2013-04-02 23:28:00,74.3,67.7,25.28,ESE,112,4.3,4.3,75,0.00,,,-99.99,Homeseer,2013-04-03 03:28:00,
2013-04-02 23:48:00,74.1,68.4,25.28,ESE,112,5.4,6.0,78,0.00,,,-99.99,Homeseer,2013-04-03 03:48:00,
2013-04-02 23:58:00,74.1,68.4,25.28,ESE,112,4.7,6.0,78,0.00,,,-99.99,Homeseer,2013-04-03 03:58:00,